• In Belarus
  • List of Countries
  • For 7 days
  • Water Temperature
  • Satellite Maps
  • Weather Map
  • Weather Widgets
  • user-avatar
    Login

    Hourly Weather Megri

    Today, 21 July, Saturday

    Time Temperature Precipitation Wind Pressure Humidity
    00:00 +23°C° 0 mm 2 mps 620 mmHg 59%
    01:00 +21°C° 0 mm 2 mps 620 mmHg 63%
    02:00 +20°C° 0 mm 2 mps 619 mmHg 67%
    03:00 +21°C° 0 mm 1 mps 619 mmHg 68%
    04:00 +21°C° 0 mm 1 mps 619 mmHg 68%
    05:00 +20°C° 0 mm 2 mps 620 mmHg 69%
    06:00 +20°C° 0 mm 2 mps 620 mmHg 70%
    07:00 +23°C° 0 mm 2 mps 621 mmHg 62%
    08:00 +25°C° 0 mm 2 mps 621 mmHg 53%
    09:00 +27°C° 0 mm 2 mps 622 mmHg 42%
    10:00 +28°C° 0 mm 2 mps 622 mmHg 38%
    11:00 +29°C° 0 mm 2 mps 622 mmHg 34%
    12:00 +30°C° 0 mm 2 mps 622 mmHg 30%
    13:00 +30°C° 0.3 mm 3 mps 622 mmHg 29%
    14:00 +31°C° 0.3 mm 3 mps 622 mmHg 28%
    15:00 +32°C° 0.3 mm 4 mps 622 mmHg 27%
    16:00 +30°C° 0.1 mm 4 mps 622 mmHg 30%
    17:00 +29°C° 0.1 mm 4 mps 621 mmHg 34%
    18:00 +29°C° 0.1 mm 5 mps 621 mmHg 38%
    19:00 +27°C° 0 mm 5 mps 621 mmHg 45%
    20:00 +25°C° 0 mm 4 mps 621 mmHg 52%
    21:00 +22°C° 0 mm 4 mps 621 mmHg 60%
    22:00 +21°C° 0 mm 4 mps 621 mmHg 63%
    23:00 +21°C° 0 mm 4 mps 621 mmHg 67%

    Tomorrow, 22 July, Sunday

    Time Temperature Precipitation Wind Pressure Humidity
    00:00 +20°C° 0 mm 3 mps 620 mmHg 70%
    01:00 +19°C° 0 mm 3 mps 620 mmHg 71%
    02:00 +19°C° 0 mm 3 mps 620 mmHg 73%
    03:00 +18°C° 0 mm 3 mps 620 mmHg 74%
    04:00 +18°C° 0 mm 3 mps 620 mmHg 74%
    05:00 +18°C° 0 mm 3 mps 620 mmHg 74%
    06:00 +19°C° 0 mm 3 mps 620 mmHg 74%
    07:00 +20°C° 0 mm 4 mps 621 mmHg 66%
    08:00 +22°C° 0 mm 4 mps 621 mmHg 59%
    09:00 +23°C° 0 mm 4 mps 622 mmHg 51%
    10:00 +25°C° 0 mm 5 mps 622 mmHg 47%
    11:00 +26°C° 0 mm 5 mps 622 mmHg 43%
    12:00 +28°C° 0 mm 5 mps 622 mmHg 39%
    13:00 +28°C° 0 mm 5 mps 622 mmHg 38%
    14:00 +28°C° 0 mm 5 mps 622 mmHg 37%
    15:00 +29°C° 0 mm 5 mps 621 mmHg 36%
    16:00 +28°C° 0 mm 5 mps 621 mmHg 38%
    17:00 +27°C° 0 mm 5 mps 621 mmHg 41%
    18:00 +26°C° 0 mm 5 mps 620 mmHg 43%
    19:00 +25°C° 0 mm 5 mps 620 mmHg 48%
    20:00 +23°C° 0 mm 4 mps 620 mmHg 53%
    21:00 +21°C° 0 mm 4 mps 620 mmHg 58%
    22:00 +20°C° 0 mm 3 mps 620 mmHg 60%
    23:00 +20°C° 0 mm 3 mps 620 mmHg 63%

    Day after tomorrow, 23 July, Monday

    Time Temperature Precipitation Wind Pressure Humidity
    00:00 +19°C° 0 mm 3 mps 620 mmHg 66%
    01:00 +19°C° 0 mm 3 mps 620 mmHg 67%
    02:00 +18°C° 0 mm 3 mps 619 mmHg 68%
    03:00 +18°C° 0 mm 3 mps 619 mmHg 69%
    04:00 +18°C° 0 mm 3 mps 619 mmHg 67%
    05:00 +18°C° 0 mm 3 mps 619 mmHg 66%
    06:00 +18°C° 0 mm 3 mps 620 mmHg 64%
    07:00 +20°C° 0 mm 3 mps 620 mmHg 57%
    08:00 +22°C° 0 mm 3 mps 621 mmHg 49%
    09:00 +25°C° 0 mm 3 mps 621 mmHg 42%
    10:00 +26°C° 0 mm 3 mps 621 mmHg 38%
    11:00 +27°C° 0 mm 3 mps 621 mmHg 34%
    12:00 +29°C° 0 mm 3 mps 621 mmHg 31%
    13:00 +29°C° 0 mm 3 mps 621 mmHg 30%
    14:00 +30°C° 0 mm 3 mps 621 mmHg 28%
    15:00 +30°C° 0 mm 4 mps 621 mmHg 27%
    16:00 +29°C° 0 mm 4 mps 620 mmHg 29%
    17:00 +29°C° 0 mm 3 mps 620 mmHg 30%
    18:00 +28°C° 0 mm 3 mps 620 mmHg 32%
    19:00 +26°C° 0 mm 3 mps 620 mmHg 38%
    20:00 +25°C° 0 mm 3 mps 620 mmHg 43%
    21:00 +22°C° 0 mm 3 mps 620 mmHg 49%
    22:00 +21°C° 0 mm 3 mps 620 mmHg 51%
    23:00 +21°C° 0 mm 2 mps 620 mmHg 54%

    24 July, Tuesday

    Time Temperature Precipitation Wind Pressure Humidity
    00:00 +20°C° 0 mm 2 mps 620 mmHg 56%
    01:00 +20°C° 0 mm 2 mps 620 mmHg 57%
    02:00 +19°C° 0 mm 2 mps 620 mmHg 59%
    03:00 +19°C° 0 mm 2 mps 619 mmHg 60%
    04:00 +19°C° 0 mm 2 mps 620 mmHg 59%
    05:00 +20°C° 0 mm 2 mps 620 mmHg 58%
    06:00 +20°C° 0 mm 2 mps 620 mmHg 57%
    07:00 +23°C° 0 mm 2 mps 621 mmHg 50%
    08:00 +24°C° 0 mm 2 mps 622 mmHg 44%
    09:00 +26°C° 0 mm 2 mps 622 mmHg 37%
    10:00 +28°C° 0 mm 1 mps 622 mmHg 33%
    11:00 +29°C° 0 mm 1 mps 623 mmHg 29%
    12:00 +31°C° 0 mm 1 mps 623 mmHg 25%
    13:00 +31°C° 0 mm 1 mps 623 mmHg 23%
    14:00 +32°C° 0 mm 1 mps 623 mmHg 22%
    15:00 +32°C° 0 mm 2 mps 623 mmHg 20%
    16:00 +31°C° 0 mm 2 mps 623 mmHg 22%
    17:00 +31°C° 0 mm 2 mps 623 mmHg 24%
    18:00 +30°C° 0 mm 2 mps 623 mmHg 25%
    19:00 +29°C° 0 mm 2 mps 623 mmHg 31%
    20:00 +27°C° 0 mm 3 mps 622 mmHg 37%
    21:00 +25°C° 0 mm 3 mps 622 mmHg 42%
    22:00 +25°C° 0 mm 3 mps 622 mmHg 45%
    23:00 +24°C° 0 mm 3 mps 622 mmHg 48%

    25 July, Wednesday

    Time Temperature Precipitation Wind Pressure Humidity
    00:00 +22°C° 0 mm 3 mps 622 mmHg 51%
    01:00 +23°C° 0 mm 2 mps 622 mmHg 52%
    02:00 +21°C° 0 mm 2 mps 622 mmHg 53%
    03:00 +21°C° 0 mm 2 mps 622 mmHg 55%
    04:00 +21°C° 0 mm 2 mps 622 mmHg 53%
    05:00 +23°C° 0 mm 2 mps 622 mmHg 52%
    06:00 +23°C° 0 mm 2 mps 622 mmHg 50%
    07:00 +25°C° 0 mm 2 mps 623 mmHg 44%
    08:00 +27°C° 0 mm 2 mps 624 mmHg 37%
    09:00 +29°C° 0 mm 2 mps 624 mmHg 30%
    10:00 +31°C° 0 mm 2 mps 624 mmHg 27%
    11:00 +32°C° 0 mm 2 mps 624 mmHg 24%
    12:00 +35°C° 0 mm 2 mps 625 mmHg 21%
    13:00 +35°C° 0 mm 2 mps 624 mmHg 20%
    14:00 +36°C° 0 mm 2 mps 624 mmHg 19%
    15:00 +37°C° 0 mm 2 mps 624 mmHg 17%
    16:00 +36°C° 0 mm 3 mps 624 mmHg 19%
    17:00 +35°C° 0 mm 3 mps 623 mmHg 21%
    18:00 +34°C° 0 mm 3 mps 623 mmHg 23%
    19:00 +31°C° 0 mm 3 mps 623 mmHg 29%
    20:00 +29°C° 0 mm 3 mps 623 mmHg 34%
    21:00 +27°C° 0 mm 4 mps 622 mmHg 40%
    22:00 +27°C° 0 mm 3 mps 622 mmHg 42%
    23:00 +26°C° 0 mm 3 mps 622 mmHg 44%

    26 July, Thursday

    Time Temperature Precipitation Wind Pressure Humidity
    00:00 +25°C° 0 mm 3 mps 622 mmHg 47%
    01:00 +25°C° 0 mm 3 mps 622 mmHg 47%
    02:00 +25°C° 0 mm 3 mps 622 mmHg 48%
    03:00 +24°C° 0 mm 2 mps 621 mmHg 49%
    04:00 +25°C° 0 mm 2 mps 622 mmHg 48%
    05:00 +25°C° 0 mm 3 mps 622 mmHg 47%
    06:00 +25°C° 0 mm 3 mps 622 mmHg 46%
    07:00 +27°C° 0 mm 3 mps 623 mmHg 40%
    08:00 +29°C° 0 mm 3 mps 624 mmHg 34%
    09:00 +31°C° 0 mm 3 mps 625 mmHg 28%
    10:00 +34°C° 0 mm 3 mps 625 mmHg 25%
    11:00 +35°C° 0 mm 3 mps 625 mmHg 22%
    12:00 +37°C° 0 mm 3 mps 625 mmHg 19%
    13:00 +37°C° 0 mm 3 mps 625 mmHg 18%
    14:00 +38°C° 0 mm 3 mps 625 mmHg 18%
    15:00 +38°C° 0 mm 3 mps 624 mmHg 17%
    16:00 +37°C° 0 mm 4 mps 624 mmHg 20%
    17:00 +36°C° 0 mm 4 mps 624 mmHg 23%
    18:00 +35°C° 0 mm 4 mps 623 mmHg 26%
    19:00 +33°C° 0 mm 4 mps 623 mmHg 33%
    20:00 +30°C° 0 mm 4 mps 623 mmHg 39%
    21:00 +28°C° 0 mm 4 mps 622 mmHg 45%
    22:00 +27°C° 0 mm 4 mps 622 mmHg 47%
    23:00 +26°C° 0 mm 4 mps 622 mmHg 48%
    Show more